Bad Axe, MI

11:05 PM EST on November 19, 2019 (GMT -0500)
Huron County Memorial

Weather History for KBAX - October, 2019

Change the Weather History Date:

Wednesday, October 23, 2019

  Actual Average (WUND) Record (WUND)
Temperature  
Mean Temperature 46 °F -  
Max Temperature 55 °F - - (-1)
Min Temperature 37 °F - - (-1)
Degree Days  
Heating Degree Days 19    
Moisture  
Dew Point 36 °F    
Average Humidity 70    
Maximum Humidity 93    
Minimum Humidity 33    
Precipitation  
Precipitation 0.00 in - - ()
Sea Level Pressure  
Sea Level Pressure 29.82 in    
Wind  
Wind Speed 11 mph ()    
Max Wind Speed 22 mph    
Max Gust Speed 31 mph    
Visibility 9.8 miles    
Events Rain    
Averages and records for this station are not official NWS values.
T = Trace of Precipitation, MM = Missing Value Source: Averaged Metar Reports

Daily Weather History Graph

Daily Weather History Graph

Search for Another Location

Airport or City:

Astronomy

Oct. 23, 2019 Rise Set
Actual Time 7:56 AM EDT 6:35 PM EDT
Civil Twilight 7:26 AM EDT 7:05 PM EDT
Nautical Twilight 6:53 AM EDT 7:38 PM EDT
Astronomical Twilight 6:19 AM EDT 8:11 PM EDT
Moon 1:58 AM EDT (10/23) 4:38 PM EDT (10/23)
Length of Visible Light 11h 38m
Length of Day
10h 39m
Waning Crescent, 27% of the Moon is Illuminated
Oct 23
Waning Crescent
Oct 27
New
Nov 4
First Quarter
Nov 12
Full
Nov 19
Last Quarter

Hourly Weather History & Observations

Time (EDT) Temp. Windchill Dew Point Humidity Pressure Visibility Wind Dir Wind Speed Gust Speed Precip Events Conditions
12:15 AM 45.9 °F 40.4 °F 39.6 °F 79% 29.68 in 10.0 mi SW 11.5 mph 19.6 mph N/A   Overcast
12:35 AM 46.4 °F 41.5 °F 39.2 °F 76% 29.68 in 10.0 mi SW 10.4 mph 16.1 mph N/A   Overcast
12:36 AM 46.4 °F 41.5 °F 39.2 °F 76% 29.68 in 10.0 mi SW 10.4 mph 16.1 mph N/A   Overcast
12:55 AM 46.9 °F - 38.7 °F 73% 29.68 in 10.0 mi SW 13.8 mph 19.6 mph N/A   Overcast
12:59 AM 47.1 °F - 38.7 °F 72% 29.68 in 10.0 mi SW 15.0 mph - N/A   Overcast
1:17 AM 45.3 °F 40.1 °F 40.5 °F 83% 29.68 in 5.0 mi WSW 10.4 mph 17.3 mph N/A Rain Light Rain
1:35 AM 44.8 °F 40.4 °F 41.0 °F 87% 29.68 in 10.0 mi WSW 8.1 mph - N/A   Overcast
1:55 AM 45.5 °F 40.3 °F 40.3 °F 82% 29.68 in 10.0 mi SW 10.4 mph - N/A   Overcast
1:56 AM 45.5 °F 40.8 °F 40.3 °F 82% 29.68 in 10.0 mi SW 9.2 mph - N/A   Overcast
2:15 AM 46.0 °F 41.4 °F 39.6 °F 78% 29.68 in 10.0 mi SW 9.2 mph 16.1 mph N/A   Overcast
2:20 AM 46.2 °F 40.1 °F 39.4 °F 77% 29.69 in 10.0 mi SW 13.8 mph 17.3 mph N/A   Overcast
2:38 AM 45.7 °F 40.2 °F 40.1 °F 81% 29.69 in 5.0 mi SW 11.5 mph 21.9 mph N/A Rain Light Rain
2:56 AM 45.5 °F 38.9 °F 39.9 °F 81% 29.70 in 5.0 mi SW 15.0 mph 26.5 mph N/A Rain Light Rain
3:15 AM 43.9 °F 38.3 °F 40.3 °F 87% 29.70 in 10.0 mi WSW 10.4 mph 20.7 mph N/A Rain Light Rain
3:35 AM 43.9 °F 38.3 °F 40.5 °F 88% 29.71 in 10.0 mi West 10.4 mph - N/A   Overcast
3:36 AM 43.9 °F 38.8 °F 40.5 °F 88% 29.71 in 10.0 mi West 9.2 mph - N/A   Overcast
3:59 AM 43.7 °F 36.9 °F 39.6 °F 85% 29.70 in 7.0 mi WSW 13.8 mph 23.0 mph N/A Rain Light Rain
4:17 AM 43.3 °F 36.5 °F 39.9 °F 88% 29.70 in 7.0 mi WSW 13.8 mph 20.7 mph N/A Rain Light Rain
4:35 AM 43.3 °F 38.1 °F 40.1 °F 88% 29.70 in 10.0 mi WSW 9.2 mph 18.4 mph N/A   Overcast
4:36 AM 43.3 °F 37.2 °F 40.1 °F 88% 29.70 in 10.0 mi WSW 11.5 mph 18.4 mph N/A   Overcast
4:55 AM 42.6 °F 39.0 °F 39.9 °F 90% 29.70 in 10.0 mi SW 5.8 mph - N/A   Mostly Cloudy
4:56 AM 42.4 °F 38.1 °F 39.7 °F 90% 29.70 in 10.0 mi SW 6.9 mph - N/A   Mostly Cloudy
5:15 AM 41.4 °F 37.6 °F 39.2 °F 92% 29.71 in 10.0 mi SW 5.8 mph - N/A   Scattered Clouds
5:20 AM 41.4 °F 37.6 °F 39.2 °F 92% 29.71 in 10.0 mi SSW 5.8 mph - N/A   Scattered Clouds
5:38 AM 41.2 °F 37.3 °F 39.2 °F 93% 29.72 in 10.0 mi SSW 5.8 mph - N/A   Scattered Clouds
5:56 AM 41.9 °F 36.3 °F 39.2 °F 90% 29.71 in 10.0 mi SSW 9.2 mph - N/A   Mostly Cloudy
6:15 AM 43.2 °F 37.0 °F 39.2 °F 86% 29.72 in 10.0 mi SSW 11.5 mph - N/A   Overcast
6:35 AM 43.7 °F 37.3 °F 38.5 °F 82% 29.73 in 10.0 mi SW 12.7 mph - N/A   Overcast
6:59 AM 43.0 °F 36.8 °F 37.6 °F 81% 29.73 in 10.0 mi SW 11.5 mph 18.4 mph N/A   Scattered Clouds
7:17 AM 43.2 °F 37.4 °F 37.6 °F 81% 29.74 in 10.0 mi SW 10.4 mph - N/A   Mostly Cloudy
7:35 AM 43.7 °F 37.3 °F 37.6 °F 79% 29.74 in 10.0 mi SSW 12.7 mph 18.4 mph N/A   Overcast
7:55 AM 43.9 °F 37.5 °F 37.4 °F 78% 29.74 in 10.0 mi SW 12.7 mph 20.7 mph N/A   Overcast
8:15 AM 44.1 °F 37.4 °F 37.2 °F 77% 29.75 in 10.0 mi SW 13.8 mph 17.3 mph N/A   Overcast
8:20 AM 44.2 °F 38.0 °F 36.9 °F 75% 29.75 in 10.0 mi SW 12.7 mph 18.4 mph N/A   Overcast
8:38 AM 44.4 °F 36.6 °F 36.7 °F 74% 29.77 in 10.0 mi SW 18.4 mph 23.0 mph N/A   Overcast
8:56 AM 44.6 °F 37.2 °F 36.5 °F 73% 29.77 in 10.0 mi SW 17.3 mph 21.9 mph N/A   Overcast
9:15 AM 44.8 °F 37.7 °F 36.7 °F 73% 29.78 in 10.0 mi SW 16.1 mph 23.0 mph N/A   Overcast
9:35 AM 44.8 °F 38.3 °F 36.9 °F 74% 29.80 in 10.0 mi SW 13.8 mph 24.2 mph N/A   Overcast
9:36 AM 44.8 °F 37.7 °F 36.9 °F 74% 29.80 in 10.0 mi WSW 16.1 mph 25.3 mph N/A   Overcast
9:59 AM 45.5 °F 38.9 °F 37.0 °F 72% 29.81 in 10.0 mi WSW 15.0 mph 24.2 mph N/A   Overcast
10:17 AM 45.9 °F 40.0 °F 37.4 °F 72% 29.82 in 10.0 mi SW 12.7 mph 23.0 mph N/A   Overcast
10:35 AM 46.6 °F - 37.4 °F 70% 29.82 in 10.0 mi WSW 13.8 mph 23.0 mph N/A   Overcast
10:55 AM 47.8 °F - 37.8 °F 68% 29.82 in 10.0 mi WSW 20.7 mph 28.8 mph N/A   Mostly Cloudy
10:56 AM 47.8 °F - 37.6 °F 68% 29.82 in 10.0 mi WSW 18.4 mph 28.8 mph N/A   Mostly Cloudy
11:15 AM 48.4 °F - 37.8 °F 67% 29.82 in 10.0 mi WSW 18.4 mph 31.1 mph N/A   Mostly Cloudy
11:20 AM 48.6 °F - 38.3 °F 68% 29.82 in 10.0 mi WSW 20.7 mph 31.1 mph N/A   Mostly Cloudy
11:38 AM 49.1 °F - 37.6 °F 64% 29.83 in 10.0 mi WSW 18.4 mph 28.8 mph N/A   Mostly Cloudy
11:56 AM 49.1 °F - 37.2 °F 64% 29.83 in 10.0 mi WSW 21.9 mph 28.8 mph N/A   Mostly Cloudy
12:15 PM 51.1 °F - 38.3 °F 62% 29.83 in 10.0 mi WSW 20.7 mph 28.8 mph N/A   Mostly Cloudy
12:35 PM 50.9 °F - 36.9 °F 59% 29.84 in 10.0 mi WSW 21.9 mph 29.9 mph N/A   Mostly Cloudy
12:36 PM 50.9 °F - 36.7 °F 58% 29.84 in 10.0 mi WSW 20.7 mph 29.9 mph N/A   Mostly Cloudy
12:59 PM 50.7 °F - 36.9 °F 59% 29.84 in 10.0 mi WSW 17.3 mph 31.1 mph N/A   Mostly Cloudy
1:17 PM 51.4 °F - 37.9 °F 60% 29.85 in 10.0 mi WSW 16.1 mph 25.3 mph N/A   Mostly Cloudy
1:35 PM 51.4 °F - 37.8 °F 60% 29.86 in 10.0 mi WSW 19.6 mph 27.6 mph N/A   Overcast
1:55 PM 51.8 °F - 37.4 °F 58% 29.86 in 10.0 mi West 17.3 mph 24.2 mph N/A   Overcast
1:56 PM 51.8 °F - 37.4 °F 58% 29.86 in 10.0 mi West 20.7 mph 26.5 mph N/A   Overcast
2:15 PM 53.4 °F - 36.3 °F 52% 29.86 in 10.0 mi WSW 18.4 mph 29.9 mph N/A   Mostly Cloudy
2:20 PM 54.1 °F - 36.7 °F 52% 29.86 in 10.0 mi WSW 17.3 mph 25.3 mph N/A   Mostly Cloudy
2:38 PM 53.8 °F - 35.1 °F 49% 29.86 in 10.0 mi WSW 21.9 mph 28.8 mph N/A   Mostly Cloudy
2:56 PM 54.9 °F - 33.6 °F 45% 29.85 in 10.0 mi WSW 16.1 mph 31.1 mph N/A   Scattered Clouds
3:15 PM 55.0 °F - 32.7 °F 43% 29.86 in 10.0 mi West 12.7 mph 27.6 mph N/A   Clear
3:35 PM 55.6 °F - 31.8 °F 41% 29.87 in 10.0 mi WSW 19.6 mph 28.8 mph N/A   Clear
3:59 PM 55.2 °F - 30.6 °F 39% 29.88 in 10.0 mi WSW 19.6 mph 29.9 mph N/A   Clear
4:17 PM 55.4 °F - 29.8 °F 38% 29.89 in 10.0 mi WSW 20.7 mph 29.9 mph N/A   Clear
4:35 PM 55.0 °F - 29.7 °F 38% 29.89 in 10.0 mi WSW 17.3 mph 25.3 mph N/A   Clear
4:55 PM 54.9 °F - 28.2 °F 36% 29.90 in 10.0 mi WSW 17.3 mph 23.0 mph N/A   Clear
5:15 PM 54.5 °F - 27.9 °F 36% 29.90 in 10.0 mi WSW 16.1 mph 25.3 mph N/A   Clear
5:20 PM 54.3 °F - 27.1 °F 35% 29.90 in 10.0 mi WSW 17.3 mph 28.8 mph N/A   Clear
5:38 PM 54.0 °F - 25.7 °F 34% 29.91 in 10.0 mi WSW 15.0 mph 21.9 mph N/A   Clear
5:56 PM 53.2 °F - 24.8 °F 33% 29.91 in 10.0 mi WSW 15.0 mph 23.0 mph N/A   Clear
6:15 PM 51.8 °F - 26.8 °F 38% 29.91 in 10.0 mi WSW 8.1 mph - N/A   Clear
6:59 PM 48.4 °F - 29.3 °F 48% 29.94 in 10.0 mi WSW 5.8 mph - N/A   Clear
7:17 PM 45.3 °F - 31.1 °F 58% 29.94 in 10.0 mi Calm Calm - N/A   Clear
7:35 PM 43.0 °F 41.3 °F 32.0 °F 65% 29.95 in 10.0 mi SSW 3.5 mph - N/A   Clear
7:55 PM 44.4 °F 41.2 °F 32.0 °F 62% 29.96 in 10.0 mi SW 5.8 mph - N/A   Clear
8:15 PM 46.4 °F 43.5 °F 32.0 °F 57% 29.97 in 10.0 mi SW 5.8 mph - N/A   Clear
8:20 PM 45.9 °F 42.9 °F 32.0 °F 58% 29.98 in 10.0 mi SW 5.8 mph - N/A   Clear
8:38 PM 41.5 °F - 32.5 °F 70% 29.98 in 10.0 mi Calm Calm - N/A   Clear
8:56 PM 39.4 °F - 32.5 °F 76% 29.99 in 10.0 mi Calm Calm - N/A   Clear
9:15 PM 39.7 °F - 32.7 °F 76% 29.98 in 10.0 mi Calm Calm - N/A   Clear
9:35 PM 39.6 °F - 32.9 °F 77% 29.99 in 10.0 mi Calm Calm - N/A   Clear
9:59 PM 40.1 °F - 32.7 °F 75% 29.99 in 10.0 mi Calm Calm - N/A   Scattered Clouds
10:17 PM 39.6 °F - 33.1 °F 78% 29.99 in 10.0 mi Calm Calm - N/A   Mostly Cloudy
10:35 PM 37.8 °F - 34.0 °F 86% 29.99 in 10.0 mi Calm Calm - N/A   Overcast
10:36 PM 37.9 °F - 34.0 °F 86% 29.99 in 10.0 mi Calm Calm - N/A   Overcast
10:55 PM 39.7 °F - 34.9 °F 83% 30.00 in 10.0 mi Calm Calm - N/A   Overcast
11:15 PM 41.2 °F - 36.7 °F 84% 30.00 in 10.0 mi Calm Calm - N/A   Overcast
11:38 PM 41.9 °F - 37.0 °F 83% 30.01 in 10.0 mi Calm Calm - N/A   Overcast
11:56 PM 42.8 °F - 37.4 °F 81% 30.00 in 10.0 mi Calm Calm - N/A   Overcast